Regional Weather Roundup
Issued by NWS

Home | Current Version | Previous Version | Graphics & Text | Print | Product List | Glossary On
Versions: 1 2 3 4 5 6 7 8 9 10 11 12 13 14 15 16 17 18 19 20 21 22 23 24 25 26 27 28 29 30 31 32 33 34 35 36 37 38 39 40 41 42 43 44 45 46 47 48 49 50
000
ASUS45 KTFX 281004
RWRMT
MONTANA HOURLY WEATHER ROUNDUP
NATIONAL WEATHER SERVICE GREAT FALLS MT
404 AM MDT SAT MAR 28 2015

NOTE: "FAIR" INDICATES FEW OR NO CLOUDS BELOW 12000 FEET WITH NO
SIGNIFICANT WEATHER AND/OR OBSTRUCTIONS TO VISIBILITY.

* THESE STATIONS ARE NOT UNDER NWS QUALITY CONTROL. THEY DO NOT
   REPORT WEATHER SUCH AS PRECIPITATION OR FOG.

MTZ001>007-043-281100-
WEST OF THE DIVIDE
CITY           SKY/WX    TMP DP  RH WIND       PRES   REMARKS
KALISPELL      CLOUDY    45  43  93 NE7       29.78F
MISSOULA       CLOUDY    41  37  86 NW7       29.84F
BUTTE          FAIR      34  28  79 S8        29.95F WCI  27
MULLAN PASS    LGT RAIN  39  39 100 VRB7      29.86F VSB 3/4  WCI  34
* ESSEX        N/A       39  36  89 SE4        N/A
* LINCOLN      N/A       31  29  92 N/A        N/A
* LOOKOUT PASS N/A       43  43 100 VRB3       N/A
* POLSON       N/A       47  45  93 E3G15      N/A
* SEELEY LAKE  N/A       30  28  92 NE2        N/A
* THOMP F APT  MOCLDY    40  29  65 NE5        N/A   WCI  36
* YAAK HILL    N/A       47  45  93 E1         N/A
$$

MTZ008-052>055-281100-
SOUTHWEST MONTANA
CITY           SKY/WX    TMP DP  RH WIND       PRES   REMARKS
BOZEMAN        CLEAR     39  30  70 SE5       29.92F WCI  35
DILLON         CLEAR     45  30  56 W7        29.94F
* W YELLOWSTON CLEAR     27  25  92 N/A        N/A
* BOULDER HILL N/A       45  25  45 S9         N/A
* HOMESTAKE PS N/A       41  27  58 SW1        N/A
* MONIDA PASS  N/A       36  29  76 SE14G19    N/A   WCI  27
* RAYNOLDS PAS N/A       40  20  45 SE14       N/A   WCI  32
* WHITEHALL    N/A       44  33  65 N8G19      N/A
* WISE RIVER   N/A       32  28  85 SW3        N/A
$$

MTZ009>010-012-014-046-048-049-054-281100-
EAST SLOPES AND CENTRAL MONTANA
CITY           SKY/WX    TMP DP  RH WIND       PRES   REMARKS
CUT BANK       FAIR      50  36  59 SW5       29.73F
GREAT FALLS    PTCLDY    52  34  50 S13       29.77F
HELENA         CLEAR     45  34  65 W5        29.84F
MALMSTROM AFB  PTCLDY    50  34  54 S14       29.77F
* DEARBORN     N/A       41  34  76 S4         N/A
* EAST GLACIER N/A       52  36  55 W6         N/A
* MONARCH      N/A       43  27  53 S12        N/A
* PENDROY      N/A       50  31  48 SW8        N/A
* ROGERS PASS  N/A       48  32  54 NW2G9      N/A
* SAINT MARY   N/A       46  34  63 S4         N/A
$$

MTZ011-013-016-021-035-040-045-047-050-051-281100-
NORTH CENTRAL MONTANA
CITY           SKY/WX    TMP DP  RH WIND       PRES   REMARKS
HAVRE          PTCLDY    45  36  71 SW9       29.71F
LEWISTOWN      PTCLDY    39  30  70 E6        29.84F WCI  35
* N BAR RANCH  CLEAR     50  30  46 SW9       29.87F
* CHESTER      N/A       45  34  65 S1         N/A
* DENTON       N/A       39  31  73 SE4        N/A
* GEYSER       N/A       45  30  56 NE2        N/A
* JUDITH GAP   N/A       43  30  60 E7         N/A
* LOMA         N/A       48  34  59 W2         N/A
$$

MTZ017>020-022>027-061-062-281100-
NORTHEAST MONTANA
CITY           SKY/WX    TMP DP  RH WIND       PRES   REMARKS
GLASGOW        PTCLDY    39  34  82 E12       29.74F WCI  32
GLENDIVE       CLEAR     41  36  82 S9        29.83F
JORDAN         PTCLDY    34  30  85 W5        29.78F WCI  29
SIDNEY         CLEAR     36  32  85 CALM      29.83F
WOLF POINT     PTCLDY    36  32  85 E5        29.79F WCI  32
* BEAVER HILL  N/A       43  34  71 SE16       N/A
* CIRCLE       N/A       46  36  68 N/A        N/A
* LINDSAY DVD  N/A       46  34  63 S4G9       N/A
* NAVAJO       N/A       36  34  92 S6         N/A   WCI  31
* SACO         N/A       39  35  86 NE3        N/A
$$

MTZ028>042-056>058-281100-
SOUTHCENTRAL AND SOUTHEAST MONTANA
CITY           SKY/WX    TMP DP  RH WIND       PRES   REMARKS
BAKER          CLEAR     39  34  82 SE6       29.87F WCI  35
BILLINGS       CLEAR     52  32  47 SW13      29.87F
LIVINGSTON     CLEAR     55  30  39 W16G26    29.91F
MILES CITY     CLEAR     43  32  65 SE10      29.83F
* ALZADA       N/A       40  31  70 E2         N/A
* HYSHAM       N/A       52  25  35 W6         N/A
* LAME DEER    N/A       51  29  43 S4         N/A
* REED POINT   N/A       37  32  82 E1         N/A
* ROSCOE HILL  N/A       60  16  18 S11G24     N/A
$$

REGIONAL REPORTS...DAKOTAS
CITY           SKY/WX    TMP DP  RH WIND       PRES   REMARKS
WILLISTON      CLEAR     30  28  92 N3        29.85F
DICKINSON      CLEAR     34  28  79 S12       29.88F WCI  25
CROSBY         CLEAR     32  32 100 S10       29.86F WCI  24
WATFORD CITY   CLEAR     32  32 100 E10       29.85F WCI  24
BISMARCK       FOG       30  30 100 S12       29.98F WCI  20
GRAND FORKS    MOCLDY    21  18  88 SE8       30.09S WCI  11
FARGO          PTCLDY    27  18  69 SE12      30.11R WCI  16
BUFFALO SD     CLEAR     39  32  76 SE7       29.84F WCI  34
RAPID CITY     PTCLDY    39  30  70 W5        29.93F WCI  35
$$

REGIONAL REPORTS...WYOMING/IDAHO/WASHINGTON
CITY           SKY/WX    TMP DP  RH WIND       PRES   REMARKS
GILLETTE       CLEAR     46  28  50 CALM      29.93F
SHERIDAN       CLEAR     45  30  56 VRB5      29.90F
CODY           PTCLDY    57  30  36 SW14      29.98F
YELLOWSTONE LA CLEAR     27  23  85 NW3       30.18F
SALMON         MOCLDY   N/A N/A N/A SE3       29.93F
MULLAN PASS    LGT RAIN  39  39 100 VRB7      29.86S VSB 3/4  WCI  34
SAND POINT     LGT RAIN  52  50  93 S14G22    29.86R
SPOKANE        LGT RAIN  50  46  86 S21G28    29.86F

$$



USA.gov is the U.S. government's official web portal to all federal, state and local government web resources and services.